When you browse on this site, cookies collect data to enhance your experience and personalize the content and advertising you see.
Visit our Privacy Policy to learn more. By continuing to use the site, you agree to this use of cookies and data.

Meteo orario Suschevo

Oggi, 14 Luglio, Martedi

Tempo Temperatura Precipitazioni Vento Pressione Umidità
00:00 +12°C° 0 mm 2 m/s 739 mm Hg 96%
01:00 +11°C° 0 mm 3 m/s 739 mm Hg 96%
02:00 +11°C° 0 mm 3 m/s 739 mm Hg 97%
03:00 +11°C° 0 mm 3 m/s 738 mm Hg 96%
04:00 +11°C° 0 mm 3 m/s 738 mm Hg 95%
05:00 +11°C° 0 mm 3 m/s 738 mm Hg 94%
06:00 +12°C° 0 mm 3 m/s 738 mm Hg 88%
07:00 +14°C° 0 mm 4 m/s 738 mm Hg 83%
08:00 +15°C° 0 mm 4 m/s 739 mm Hg 79%
09:00 +17°C° 0 mm 4 m/s 739 mm Hg 73%
10:00 +17°C° 0 mm 5 m/s 739 mm Hg 68%
11:00 +19°C° 0 mm 5 m/s 738 mm Hg 62%
12:00 +19°C° 0 mm 5 m/s 738 mm Hg 62%
13:00 +19°C° 0 mm 5 m/s 738 mm Hg 61%
14:00 +20°C° 0 mm 4 m/s 738 mm Hg 61%
15:00 +19°C° 0 mm 4 m/s 737 mm Hg 63%
16:00 +19°C° 0 mm 4 m/s 737 mm Hg 65%
17:00 +19°C° 0 mm 4 m/s 736 mm Hg 67%
18:00 +18°C° 0 mm 4 m/s 736 mm Hg 68%
19:00 +16°C° 0 mm 5 m/s 736 mm Hg 69%
20:00 +15°C° 0 mm 5 m/s 735 mm Hg 70%
21:00 +15°C° 0.2 mm 5 m/s 735 mm Hg 69%
22:00 +15°C° 0.2 mm 5 m/s 734 mm Hg 68%
23:00 +14°C° 0.2 mm 5 m/s 734 mm Hg 67%

Domani, 15 Luglio, Mercoledi

Tempo Temperatura Precipitazioni Vento Pressione Umidità
00:00 +13°C° 1.5 mm 5 m/s 733 mm Hg 75%
01:00 +12°C° 1.5 mm 5 m/s 733 mm Hg 82%
02:00 +12°C° 1.5 mm 5 m/s 733 mm Hg 90%
03:00 +10°C° 3 mm 6 m/s 732 mm Hg 92%
04:00 +10°C° 3 mm 7 m/s 732 mm Hg 93%
05:00 +10°C° 3 mm 8 m/s 731 mm Hg 94%
06:00 +9°C° 1.3 mm 8 m/s 731 mm Hg 95%
07:00 +9°C° 1.3 mm 8 m/s 732 mm Hg 95%
08:00 +9°C° 1.3 mm 8 m/s 732 mm Hg 95%
09:00 +9°C° 0.8 mm 8 m/s 732 mm Hg 95%
10:00 +9°C° 0.8 mm 8 m/s 732 mm Hg 95%
11:00 +9°C° 0.8 mm 8 m/s 732 mm Hg 95%
12:00 +9°C° 0.2 mm 8 m/s 732 mm Hg 95%
13:00 +10°C° 0.2 mm 8 m/s 733 mm Hg 95%
14:00 +10°C° 0.2 mm 8 m/s 733 mm Hg 94%
15:00 +10°C° 0.2 mm 8 m/s 734 mm Hg 93%
16:00 +10°C° 0.2 mm 7 m/s 734 mm Hg 93%
17:00 +10°C° 0.2 mm 7 m/s 734 mm Hg 92%
18:00 +10°C° 0.1 mm 6 m/s 734 mm Hg 91%
19:00 +10°C° 0.1 mm 6 m/s 735 mm Hg 90%
20:00 +10°C° 0.1 mm 5 m/s 735 mm Hg 89%
21:00 +10°C° 0 mm 5 m/s 735 mm Hg 89%
22:00 +9°C° 0 mm 5 m/s 735 mm Hg 88%
23:00 +9°C° 0 mm 5 m/s 735 mm Hg 88%

Dopodomani, 16 Luglio, Giovedi

Tempo Temperatura Precipitazioni Vento Pressione Umidità
00:00 +10°C° 0 mm 5 m/s 735 mm Hg 87%
01:00 +11°C° 0 mm 4 m/s 735 mm Hg 87%
02:00 +11°C° 0 mm 4 m/s 735 mm Hg 86%
03:00 +11°C° 0 mm 4 m/s 735 mm Hg 86%
04:00 +11°C° 0 mm 4 m/s 735 mm Hg 87%
05:00 +11°C° 0 mm 4 m/s 735 mm Hg 87%
06:00 +12°C° 0 mm 4 m/s 735 mm Hg 86%
07:00 +12°C° 0 mm 4 m/s 735 mm Hg 85%
08:00 +13°C° 0 mm 4 m/s 735 mm Hg 83%
09:00 +14°C° 0 mm 4 m/s 735 mm Hg 79%
10:00 +15°C° 0 mm 4 m/s 735 mm Hg 74%
11:00 +17°C° 0 mm 5 m/s 736 mm Hg 69%
12:00 +19°C° 0 mm 4 m/s 736 mm Hg 67%
13:00 +20°C° 0 mm 4 m/s 736 mm Hg 64%
14:00 +21°C° 0 mm 4 m/s 736 mm Hg 61%
15:00 +20°C° 0.2 mm 3 m/s 736 mm Hg 68%
16:00 +19°C° 0.2 mm 3 m/s 736 mm Hg 75%
17:00 +18°C° 0.2 mm 3 m/s 736 mm Hg 82%
18:00 +17°C° 0.1 mm 2 m/s 736 mm Hg 85%
19:00 +16°C° 0.1 mm 1 m/s 736 mm Hg 88%
20:00 +13°C° 0.1 mm 0 m/s 736 mm Hg 91%
21:00 +14°C° 0 mm 1 m/s 737 mm Hg 92%
22:00 +13°C° 0 mm 1 m/s 737 mm Hg 92%
23:00 +13°C° 0 mm 1 m/s 737 mm Hg 92%

17 Luglio, Venerdi

Tempo Temperatura Precipitazioni Vento Pressione Umidità
00:00 +12°C° 0 mm 1 m/s 737 mm Hg 93%
01:00 +12°C° 0 mm 1 m/s 737 mm Hg 93%
02:00 +12°C° 0 mm 1 m/s 737 mm Hg 93%
03:00 +12°C° 0 mm 1 m/s 737 mm Hg 93%
04:00 +12°C° 0 mm 1 m/s 737 mm Hg 92%
05:00 +12°C° 0 mm 1 m/s 737 mm Hg 92%
06:00 +14°C° 0 mm 1 m/s 738 mm Hg 86%
07:00 +16°C° 0 mm 1 m/s 738 mm Hg 80%
08:00 +19°C° 0 mm 1 m/s 738 mm Hg 73%
09:00 +20°C° 0 mm 1 m/s 738 mm Hg 68%
10:00 +21°C° 0 mm 2 m/s 738 mm Hg 63%
11:00 +23°C° 0 mm 2 m/s 739 mm Hg 58%
12:00 +23°C° 0 mm 2 m/s 739 mm Hg 58%
13:00 +23°C° 0 mm 2 m/s 739 mm Hg 57%
14:00 +24°C° 0 mm 2 m/s 739 mm Hg 57%
15:00 +24°C° 0 mm 2 m/s 739 mm Hg 59%
16:00 +23°C° 0 mm 2 m/s 739 mm Hg 61%
17:00 +23°C° 0 mm 2 m/s 739 mm Hg 63%
18:00 +21°C° 0 mm 2 m/s 739 mm Hg 69%
19:00 +20°C° 0 mm 1 m/s 739 mm Hg 75%
20:00 +18°C° 0 mm 1 m/s 739 mm Hg 81%
21:00 +16°C° 0 mm 1 m/s 739 mm Hg 83%
22:00 +15°C° 0 mm 1 m/s 740 mm Hg 85%
23:00 +14°C° 0 mm 1 m/s 740 mm Hg 87%

18 Luglio, Sabato

Tempo Temperatura Precipitazioni Vento Pressione Umidità
00:00 +13°C° 0 mm 1 m/s 740 mm Hg 88%
01:00 +13°C° 0 mm 1 m/s 740 mm Hg 89%
02:00 +13°C° 0 mm 1 m/s 741 mm Hg 89%
03:00 +13°C° 0 mm 1 m/s 741 mm Hg 89%
04:00 +13°C° 0 mm 1 m/s 741 mm Hg 89%
05:00 +13°C° 0 mm 1 m/s 741 mm Hg 89%
06:00 +15°C° 0 mm 1 m/s 742 mm Hg 82%
07:00 +18°C° 0 mm 1 m/s 742 mm Hg 76%
08:00 +20°C° 0 mm 1 m/s 742 mm Hg 69%
09:00 +22°C° 0 mm 1 m/s 742 mm Hg 62%
10:00 +23°C° 0 mm 1 m/s 742 mm Hg 56%
11:00 +24°C° 0 mm 1 m/s 742 mm Hg 49%
12:00 +24°C° 0 mm 1 m/s 742 mm Hg 47%
13:00 +25°C° 0 mm 1 m/s 742 mm Hg 45%
14:00 +25°C° 0 mm 1 m/s 742 mm Hg 44%
15:00 +25°C° 0 mm 1 m/s 742 mm Hg 48%
16:00 +25°C° 0 mm 1 m/s 742 mm Hg 52%
17:00 +25°C° 0 mm 1 m/s 742 mm Hg 56%
18:00 +22°C° 0 mm 1 m/s 742 mm Hg 61%
19:00 +18°C° 0 mm 0 m/s 742 mm Hg 67%
20:00 +16°C° 0 mm 0 m/s 742 mm Hg 72%
21:00 +15°C° 0 mm 0 m/s 742 mm Hg 73%
22:00 +15°C° 0 mm 0 m/s 743 mm Hg 74%
23:00 +14°C° 0 mm 0 m/s 743 mm Hg 75%

19 Luglio, Domenica

Tempo Temperatura Precipitazioni Vento Pressione Umidità
00:00 +14°C° 0 mm 0 m/s 743 mm Hg 76%
01:00 +13°C° 0 mm 0 m/s 743 mm Hg 77%
02:00 +13°C° 0 mm 0 m/s 743 mm Hg 78%
03:00 +14°C° 0 mm 1 m/s 743 mm Hg 78%
04:00 +14°C° 0 mm 1 m/s 743 mm Hg 79%
05:00 +14°C° 0 mm 1 m/s 743 mm Hg 80%
06:00 +16°C° 0 mm 1 m/s 743 mm Hg 75%
07:00 +19°C° 0 mm 1 m/s 743 mm Hg 71%
08:00 +21°C° 0 mm 1 m/s 743 mm Hg 66%
09:00 +22°C° 0 mm 1 m/s 743 mm Hg 61%
10:00 +24°C° 0 mm 1 m/s 743 mm Hg 56%
11:00 +25°C° 0 mm 1 m/s 743 mm Hg 52%
12:00 +25°C° 0 mm 1 m/s 742 mm Hg 49%
13:00 +26°C° 0 mm 1 m/s 742 mm Hg 47%
14:00 +26°C° 0 mm 1 m/s 742 mm Hg 45%
15:00 +26°C° 0 mm 1 m/s 742 mm Hg 50%
16:00 +25°C° 0 mm 1 m/s 741 mm Hg 55%
17:00 +25°C° 0 mm 2 m/s 741 mm Hg 60%
18:00 +23°C° 0 mm 2 m/s 741 mm Hg 66%
19:00 +20°C° 0 mm 2 m/s 741 mm Hg 71%
20:00 +17°C° 0 mm 2 m/s 741 mm Hg 77%
21:00 +16°C° 0 mm 1 m/s 740 mm Hg 77%
22:00 +15°C° 0 mm 1 m/s 740 mm Hg 78%
23:00 +15°C° 0 mm 1 m/s 740 mm Hg 78%
Mostrare altro